Location: Beaurevoir
(49.9971°N, 3.3085°E)
Time: 03:29:45
(UTC+00:00)

ADEOS II - Pass Details

Date: 23 May 2024
Orbit: 796 x 798 km, 98.7° (Epoch: 21 June)

Event Time Altitude Azimuth Distance (km) Brightness Sun altitude
Rises 01:12:33 0° 23° (NNE) 3,313 7.1 -16.7°
Reaches altitude 10° 01:15:16 10° 36° (NE) 2,378 5.8 -16.5°
Maximum altitude 01:19:40 27° 93° (E) 1,505 3.7 -16.2°
Drops below altitude 10° 01:24:02 10° 150° (SSE) 2,362 4.2 -15.9°
Enters shadow 01:24:17 - 152° (SSE) 2,445 4.3 -15.9°
